Date String (YYYY-MM-DD hh:mm:ss) UTC,Instrument flags,Ambient pressure (hPa),Sample flow (lpm),Bypass flow (lpm),Sample temperature (°C),Ambient temperature (°C),ASC tube jacket temperature (°C),LED temperature (°C),Box temperature (°C),Sample RH (%),Span deviation,Mass concentration (μg/m³),Mass concentration (μg/m³),Mass concentration (μg/m³)
DateTimeUTC,F1_M11,P_M11,Q1_M11,Q2_M11,T1_M11,T2_M11,T3_M11,T4_M11,T5_M11,U1_M11,ZSPAN_M11,X0_M11,X2_M11,X1_M11
2022-07-17 18:00:00,,0830.6,5.00,0.00,29.2,27.5,00.0,37.8,31.2,30.6,0000.0,0014.46,0007.36,0006.37
2022-07-17 18:01:00,,0830.6,5.01,0.00,29.2,27.1,00.0,37.8,31.1,30.5,0000.0,0014.00,0007.42,0006.37
2022-07-17 18:02:00,,0830.6,5.00,0.00,29.2,27.0,00.0,37.8,31.1,30.9,0000.0,0013.66,0007.46,0006.38
2022-07-17 18:03:00,,0830.6,5.01,0.00,29.2,27.1,00.0,37.8,31.0,31.1,0000.0,0014.50,0007.46,0006.40
2022-07-17 18:04:00,,0830.6,4.99,0.00,29.1,27.3,00.0,37.8,31.0,30.8,0000.0,0014.35,0007.48,0006.43
2022-07-17 18:05:00,,0830.6,5.01,0.00,29.1,27.5,00.0,37.8,31.0,30.5,0000.0,0014.17,0007.45,0006.45
2022-07-17 18:06:00,,0830.6,4.99,0.00,29.2,27.7,00.0,37.9,31.1,30.4,0000.0,0014.11,0007.45,0006.45
2022-07-17 18:07:00,,0830.6,5.02,0.00,29.2,27.9,00.0,37.9,31.2,29.9,0000.0,0013.62,0007.41,0006.44
2022-07-17 18:08:00,,0830.6,5.00,0.00,29.2,28.0,00.0,37.9,31.2,29.4,0000.0,0013.75,0007.41,0006.42
2022-07-17 18:09:00,,0830.6,5.00,0.00,29.3,27.6,00.0,37.8,31.2,29.0,0000.0,0013.56,0007.35,0006.40
2022-07-17 18:10:00,,0830.6,5.00,0.00,29.2,27.1,00.0,37.8,31.1,29.2,0000.0,0014.14,0007.32,0006.39
2022-07-17 18:11:00,,0830.6,4.99,0.00,29.2,27.0,00.0,37.8,31.1,29.3,0000.0,0013.93,0007.27,0006.36
2022-07-17 18:12:00,,0830.6,5.00,0.00,29.2,27.1,00.0,37.8,31.0,29.3,0000.0,0013.66,0007.19,0006.33
2022-07-17 18:13:00,,0830.6,5.00,0.00,29.1,27.3,00.0,37.8,31.0,29.7,0000.0,0013.53,0007.13,0006.30
2022-07-17 18:14:00,,0830.6,5.01,0.00,29.1,27.5,00.0,37.8,31.0,29.4,0000.0,0013.11,0007.08,0006.27
2022-07-17 18:15:00,,0830.5,5.00,0.00,29.2,27.7,00.0,37.8,31.1,29.2,0000.0,0013.21,0007.04,0006.22
2022-07-17 18:16:00,,0830.6,4.99,0.00,29.2,27.9,00.0,37.9,31.1,28.6,0000.0,0013.40,0007.02,0006.19
2022-07-17 18:17:00,,0830.6,5.00,0.00,29.2,28.0,00.0,37.9,31.2,27.7,0000.0,0013.54,0007.03,0006.16
2022-07-17 18:18:00,,0830.5,5.00,0.00,29.3,27.6,00.0,37.8,31.2,27.6,0000.0,0013.56,0007.00,0006.14
2022-07-17 18:19:00,,0830.5,5.00,0.00,29.2,27.1,00.0,37.8,31.1,27.8,0000.0,0013.62,0006.97,0006.12
2022-07-17 18:20:00,,0830.5,4.99,0.00,29.2,27.0,00.0,37.8,31.0,28.3,0000.0,0014.22,0007.03,0006.12
2022-07-17 18:21:00,,0830.5,5.01,0.00,29.1,27.1,00.0,37.8,30.9,27.7,0000.0,0013.62,0007.05,0006.08
2022-07-17 18:22:00,,0830.5,5.00,0.00,29.1,27.3,00.0,37.8,30.9,27.3,0000.0,0013.64,0007.05,0006.05
2022-07-17 18:23:00,,0830.5,5.01,0.00,29.1,27.5,00.0,37.8,31.0,26.9,0000.0,0013.70,0007.03,0006.02
2022-07-17 18:24:00,,0830.5,5.00,0.00,29.2,27.7,00.0,37.8,31.1,26.8,0000.0,0013.71,0007.00,0006.00
2022-07-17 18:25:00,,0830.5,5.00,0.00,29.2,27.9,00.0,37.9,31.1,27.4,0000.0,0014.27,0006.99,0005.98
2022-07-17 18:26:00,,0830.6,4.99,0.00,29.2,28.0,00.0,37.9,31.2,28.3,0000.0,0014.09,0006.97,0005.97
2022-07-17 18:27:00,,0830.5,5.01,0.00,29.3,28.0,00.0,37.9,31.3,29.0,0000.0,0013.94,0007.00,0005.97
2022-07-17 18:28:00,,0830.5,4.99,0.00,29.3,27.5,00.0,37.8,31.2,29.1,0000.0,0013.77,0006.96,0005.96
2022-07-17 18:29:00,,0830.5,4.99,0.00,29.2,27.1,00.0,37.8,31.1,27.8,0000.0,0013.84,0006.94,0005.95
2022-07-17 18:30:00,,0830.5,5.00,0.00,29.2,27.1,00.0,37.8,31.1,27.0,0000.0,0014.05,0006.94,0005.93
2022-07-17 18:31:00,,0830.5,5.00,0.00,29.2,27.2,00.0,37.8,31.0,27.2,0000.0,0013.31,0006.85,0005.89
2022-07-17 18:32:00,,0830.4,4.99,0.00,29.2,27.4,00.0,37.8,31.0,27.4,0000.0,0012.97,0006.76,0005.87
2022-07-17 18:33:00,,0830.4,5.01,0.00,29.2,27.6,00.0,37.9,31.1,28.0,0000.0,0013.41,0006.75,0005.86
2022-07-17 18:34:00,,0830.4,4.99,0.00,29.2,27.8,00.0,37.9,31.1,26.8,0000.0,0014.11,0006.74,0005.85
2022-07-17 18:35:00,,0830.4,5.00,0.00,29.2,28.0,00.0,37.9,31.2,27.9,0000.0,0014.33,0006.72,0005.84
2022-07-17 18:36:00,,0830.4,5.00,0.00,29.3,28.0,00.0,37.9,31.3,28.3,0000.0,0013.37,0006.68,0005.84
2022-07-17 18:37:00,,0830.4,5.00,0.00,29.3,27.5,00.0,37.8,31.2,28.3,0000.0,0013.02,0006.70,0005.85
2022-07-17 18:38:00,,0830.4,5.01,0.00,29.3,27.1,00.0,37.8,31.1,27.9,0000.0,0012.94,0006.64,0005.83
2022-07-17 18:39:00,,0830.4,5.00,0.00,29.2,27.1,00.0,37.8,31.0,27.6,0000.0,0013.06,0006.63,0005.81
2022-07-17 18:40:00,,0830.4,5.00,0.00,29.2,27.2,00.0,37.8,31.0,27.7,0000.0,0012.81,0006.61,0005.81
2022-07-17 18:41:00,,0830.4,5.01,0.00,29.2,27.4,00.0,37.8,31.0,28.2,0000.0,0012.72,0006.66,0005.83
2022-07-17 18:42:00,,0830.4,4.99,0.00,29.2,27.6,00.0,37.9,31.1,28.5,0000.0,0012.38,0006.68,0005.86
2022-07-17 18:43:00,,0830.4,5.01,0.00,29.2,27.8,00.0,37.9,31.1,28.4,0000.0,0012.90,0006.75,0005.89
2022-07-17 18:44:00,,0830.3,5.00,0.00,29.2,28.0,00.0,37.9,31.2,28.7,0000.0,0012.96,0006.80,0005.92
2022-07-17 18:45:00,,0830.3,5.00,0.00,29.3,28.0,00.0,37.9,31.3,29.2,0000.0,0012.51,0006.80,0005.95
2022-07-17 18:46:00,,0830.3,5.00,0.00,29.3,27.5,00.0,37.9,31.2,29.5,0000.0,0013.07,0006.89,0006.00
2022-07-17 18:47:00,,0830.2,5.00,0.00,29.3,27.1,00.0,37.8,31.1,29.4,0000.0,0013.61,0006.95,0006.01
2022-07-17 18:48:00,,0830.3,5.00,0.00,29.2,27.1,00.0,37.8,31.1,28.8,0000.0,0013.92,0006.95,0006.01
2022-07-17 18:49:00,,0830.3,5.00,0.00,29.2,27.2,00.0,37.8,31.0,28.8,0000.0,0014.51,0006.99,0006.02
2022-07-17 18:50:00,,0830.2,5.00,0.00,29.2,27.4,00.0,37.9,31.0,28.8,0000.0,0014.31,0006.94,0006.03
2022-07-17 18:51:00,,0830.3,4.99,0.00,29.2,27.6,00.0,37.9,31.1,28.0,0000.0,0014.26,0006.93,0006.03
2022-07-17 18:52:00,,0830.2,5.01,0.00,29.2,27.8,00.0,37.9,31.1,27.6,0000.0,0014.28,0006.91,0006.00
2022-07-17 18:53:00,,0830.2,4.99,0.00,29.3,27.9,00.0,37.9,31.2,27.7,0000.0,0014.35,0006.93,0006.01
2022-07-17 18:54:00,,0830.2,5.00,0.00,29.3,27.4,00.0,37.8,31.2,27.8,0000.0,0013.91,0006.89,0006.00
2022-07-17 18:55:00,,0830.2,4.99,0.00,29.2,27.0,00.0,37.8,31.1,27.0,0000.0,0013.55,0006.85,0005.97
2022-07-17 18:56:00,,0830.2,5.00,0.00,29.2,27.0,00.0,37.8,31.0,26.9,0000.0,0013.37,0006.85,0005.95
2022-07-17 18:57:00,,0830.3,5.01,0.00,29.1,27.1,00.0,37.8,30.9,26.8,0000.0,0012.52,0006.76,0005.89
2022-07-17 18:58:00,,0830.3,5.01,0.00,29.1,27.3,00.0,37.8,31.0,27.0,0000.0,0012.36,0006.69,0005.86
2022-07-17 18:59:00,,0830.2,4.99,0.00,29.1,27.5,00.0,37.8,31.0,27.2,0000.0,0012.16,0006.61,0005.84
